Time,TemperatureF,DewpointF,PressureIn,WindDirection,WindDirectionDegrees,WindSpeedMPH,WindSpeedGustMPH,Humidity,HourlyPrecipIn,Conditions,Clouds,dailyrainin,SolarRadiationWatts/m^2,SoftwareType,DateUTC
2013-05-29 00:00:00,79.3,70.7,29.79,South,180,24.2,24.2,75,0.00,CLR,,0.00,410.0,WeatherDisplay:10.37,2013-05-29 05:00:00,
2013-05-29 00:06:00,79.2,70.5,29.79,SE,135,16.6,16.6,75,0.00,CLR,,0.00,0.0,WeatherDisplay:10.37,2013-05-29 05:06:00,
2013-05-29 00:11:00,79.2,70.5,29.78,SE,135,16.1,16.1,75,0.00,CLR,,0.00,410.0,WeatherDisplay:10.37,2013-05-29 05:11:00,
2013-05-29 00:16:00,79.0,70.8,29.78,SSE,158,12.9,12.9,76,0.00,CLR,,0.00,410.0,WeatherDisplay:10.37,2013-05-29 05:16:00,
2013-05-29 00:21:00,78.6,70.4,29.78,SSE,158,6.9,9.7,76,0.00,CLR,,0.00,400.0,WeatherDisplay:10.37,2013-05-29 05:21:00,
2013-05-29 00:27:00,78.6,70.4,29.78,SE,135,17.3,17.3,76,0.00,CLR,,0.00,400.0,WeatherDisplay:10.37,2013-05-29 05:27:00,
2013-05-29 00:32:00,78.6,70.4,29.76,SE,135,13.8,13.8,76,0.00,CLR,,0.00,390.0,WeatherDisplay:10.37,2013-05-29 05:32:00,
2013-05-29 00:37:00,78.4,70.6,29.76,SSE,158,19.6,19.6,77,0.00,CLR,,0.00,400.0,WeatherDisplay:10.37,2013-05-29 05:37:00,
2013-05-29 00:42:00,78.3,70.5,29.76,SW,225,12.7,12.7,77,0.00,CLR,,0.00,410.0,WeatherDisplay:10.37,2013-05-29 05:42:00,
2013-05-29 00:47:00,78.1,70.3,29.76,SSE,158,17.3,17.3,77,0.00,CLR,,0.00,410.0,WeatherDisplay:10.37,2013-05-29 05:47:00,
2013-05-29 00:52:00,78.3,70.8,29.76,SSE,158,13.8,13.8,78,0.00,CLR,,0.00,420.0,WeatherDisplay:10.37,2013-05-29 05:52:00,
2013-05-29 00:58:00,77.9,70.5,29.76,SE,135,12.7,12.7,78,0.00,CLR,,0.00,430.0,WeatherDisplay:10.37,2013-05-29 05:58:00,
2013-05-29 01:03:00,77.9,70.5,29.76,South,180,16.1,16.1,78,0.00,CLR,,0.00,430.0,WeatherDisplay:10.37,2013-05-29 06:03:00,
2013-05-29 01:08:00,77.7,70.3,29.76,SE,135,10.4,10.4,78,0.00,CLR,,0.00,430.0,WeatherDisplay:10.37,2013-05-29 06:08:00,
2013-05-29 01:14:00,77.7,70.3,29.79,ESE,112,6.9,7.5,78,0.00,CLR,,0.00,430.0,WeatherDisplay:10.37,2013-05-29 06:14:00,
2013-05-29 01:19:00,77.5,70.1,29.79,ESE,112,9.2,9.2,78,0.00,CLR,,0.00,440.0,WeatherDisplay:10.37,2013-05-29 06:19:00,
2013-05-29 01:24:00,77.5,70.5,29.79,SSE,158,11.5,11.5,79,0.00,CLR,,0.00,450.0,WeatherDisplay:10.37,2013-05-29 06:24:00,
2013-05-29 01:29:00,77.4,70.3,29.79,SSE,158,5.8,6.6,79,0.00,CLR,,0.00,450.0,WeatherDisplay:10.37,2013-05-29 06:29:00,
2013-05-29 01:34:00,77.4,70.3,29.81,SSE,158,7.2,7.2,79,0.00,CLR,,0.00,460.0,WeatherDisplay:10.37,2013-05-29 06:34:00,
2013-05-29 01:39:00,77.4,70.3,29.81,SSE,158,4.6,4.9,79,0.00,CLR,,0.00,500.0,WeatherDisplay:10.37,2013-05-29 06:39:00,
2013-05-29 01:45:00,77.5,70.5,29.81,SSE,158,13.1,13.1,79,0.00,CLR,,0.00,500.0,WeatherDisplay:10.37,2013-05-29 06:45:00,
2013-05-29 01:50:00,77.2,70.2,29.80,SE,135,9.2,9.2,79,0.00,CLR,,0.00,500.0,WeatherDisplay:10.37,2013-05-29 06:50:00,
2013-05-29 01:55:00,77.2,70.2,29.80,SSW,202,4.6,5.2,79,0.00,CLR,,0.00,500.0,WeatherDisplay:10.37,2013-05-29 06:55:00,
2013-05-29 02:01:00,77.2,70.2,29.80,SW,225,10.4,10.4,79,0.00,CLR,,0.00,480.0,WeatherDisplay:10.37,2013-05-29 07:01:00,
2013-05-29 02:06:00,77.0,70.0,29.80,SSE,158,8.1,8.1,79,0.00,CLR,,0.00,460.0,WeatherDisplay:10.37,2013-05-29 07:06:00,
2013-05-29 02:11:00,77.2,70.2,29.81,SSE,158,6.9,6.9,79,0.00,CLR,,0.00,460.0,WeatherDisplay:10.37,2013-05-29 07:11:00,
2013-05-29 02:16:00,77.0,70.0,29.81,SSE,158,11.5,11.5,79,0.00,CLR,,0.00,480.0,WeatherDisplay:10.37,2013-05-29 07:16:00,
2013-05-29 02:21:00,76.8,69.8,29.81,SSE,158,6.1,6.1,79,0.00,CLR,,0.00,500.0,WeatherDisplay:10.37,2013-05-29 07:21:00,
2013-05-29 02:26:00,76.8,69.8,29.81,WSW,248,4.6,4.6,79,0.00,CLR,,0.00,510.0,WeatherDisplay:10.37,2013-05-29 07:26:00,
2013-05-29 02:32:00,76.8,69.8,29.82,SSW,202,11.5,11.5,79,0.00,CLR,,0.00,510.0,WeatherDisplay:10.37,2013-05-29 07:32:00,
2013-05-29 02:37:00,76.8,69.8,29.82,South,180,5.8,5.8,79,0.00,CLR,,0.00,480.0,WeatherDisplay:10.37,2013-05-29 07:37:00,
2013-05-29 02:42:00,76.6,69.6,29.82,South,180,6.9,6.9,79,0.00,CLR,,0.00,490.0,WeatherDisplay:10.37,2013-05-29 07:42:00,
2013-05-29 02:47:00,76.6,70.0,29.82,SW,225,4.6,4.6,80,0.00,CLR,,0.00,490.0,WeatherDisplay:10.37,2013-05-29 07:47:00,
2013-05-29 02:53:00,76.8,70.2,29.84,SW,225,5.8,5.8,80,0.00,CLR,,0.00,0.0,WeatherDisplay:10.37,2013-05-29 07:53:00,
2013-05-29 02:58:00,76.6,70.0,29.84,SSE,158,10.4,10.4,80,0.00,CLR,,0.00,490.0,WeatherDisplay:10.37,2013-05-29 07:58:00,
2013-05-29 03:03:00,76.6,69.6,29.84,SE,135,6.9,6.9,79,0.00,CLR,,0.00,490.0,WeatherDisplay:10.37,2013-05-29 08:03:00,
2013-05-29 03:08:00,76.5,69.8,29.84,ESE,112,5.8,5.8,80,0.00,CLR,,0.00,490.0,WeatherDisplay:10.37,2013-05-29 08:08:00,
2013-05-29 03:13:00,76.5,69.8,29.83,SE,135,9.2,9.2,80,0.00,CLR,,0.00,510.0,WeatherDisplay:10.37,2013-05-29 08:13:00,
2013-05-29 03:18:00,76.5,69.8,29.83,SE,135,9.8,9.8,80,0.00,CLR,,0.00,500.0,WeatherDisplay:10.37,2013-05-29 08:18:00,
2013-05-29 03:23:00,76.3,69.7,29.83,SE,135,12.7,12.7,80,0.00,CLR,,0.00,500.0,WeatherDisplay:10.37,2013-05-29 08:23:00,
2013-05-29 03:29:00,76.5,69.8,29.83,ESE,112,8.3,8.3,80,0.00,CLR,,0.00,0.0,WeatherDisplay:10.37,2013-05-29 08:29:00,
2013-05-29 03:34:00,76.5,69.8,29.81,SE,135,13.8,13.8,80,0.00,CLR,,0.00,500.0,WeatherDisplay:10.37,2013-05-29 08:34:00,
2013-05-29 03:39:00,76.5,69.8,29.81,SSE,158,11.5,11.5,80,0.00,CLR,,0.00,500.0,WeatherDisplay:10.37,2013-05-29 08:39:00,
2013-05-29 03:44:00,76.3,69.7,29.81,NNE,22,11.5,11.5,80,0.00,CLR,,0.00,510.0,WeatherDisplay:10.37,2013-05-29 08:44:00,
2013-05-29 03:49:00,76.1,69.5,29.78,SE,135,11.5,11.5,80,0.00,CLR,,0.00,500.0,WeatherDisplay:10.37,2013-05-29 08:49:00,
2013-05-29 03:54:00,76.1,69.5,29.78,SSE,158,16.1,16.1,80,0.00,CLR,,0.00,490.0,WeatherDisplay:10.37,2013-05-29 08:54:00,
2013-05-29 04:00:00,75.9,69.3,29.78,SSE,158,13.8,13.8,80,0.00,CLR,,0.00,500.0,WeatherDisplay:10.37,2013-05-29 09:00:00,
2013-05-29 04:05:00,75.9,69.3,29.78,SE,135,12.7,12.7,80,0.00,CLR,,0.00,500.0,WeatherDisplay:10.37,2013-05-29 09:05:00,
2013-05-29 04:10:00,76.1,69.5,29.77,South,180,12.7,12.7,80,0.00,CLR,,0.00,500.0,WeatherDisplay:10.37,2013-05-29 09:10:00,
2013-05-29 04:15:00,75.9,69.3,29.77,SSE,158,14.1,14.1,80,0.00,CLR,,0.00,510.0,WeatherDisplay:10.37,2013-05-29 09:15:00,
2013-05-29 04:20:00,75.7,69.1,29.77,SSE,158,15.0,15.0,80,0.00,CLR,,0.00,490.0,WeatherDisplay:10.37,2013-05-29 09:20:00,
2013-05-29 04:25:00,75.7,69.1,29.77,SE,135,9.2,9.2,80,0.00,CLR,,0.00,490.0,WeatherDisplay:10.37,2013-05-29 09:25:00,
2013-05-29 04:30:00,75.7,69.1,29.78,SE,135,8.4,9.1,80,0.00,CLR,,0.00,500.0,WeatherDisplay:10.37,2013-05-29 09:30:00,
2013-05-29 04:35:00,75.7,69.1,29.78,SSE,158,12.7,12.7,80,0.00,CLR,,0.00,500.0,WeatherDisplay:10.37,2013-05-29 09:35:00,
2013-05-29 04:41:00,75.7,69.1,29.78,SE,135,14.1,14.1,80,0.00,CLR,,0.00,500.0,WeatherDisplay:10.37,2013-05-29 09:41:00,
2013-05-29 04:46:00,75.7,69.1,29.78,SW,225,15.0,15.0,80,0.00,CLR,,0.00,500.0,WeatherDisplay:10.37,2013-05-29 09:46:00,
2013-05-29 04:51:00,75.7,69.1,29.77,SSE,158,12.7,12.7,80,0.00,CLR,,0.00,500.0,WeatherDisplay:10.37,2013-05-29 09:51:00,
2013-05-29 04:56:00,75.7,69.1,29.77,SE,135,12.7,12.7,80,0.00,CLR,,0.00,490.0,WeatherDisplay:10.37,2013-05-29 09:56:00,
2013-05-29 05:01:00,75.7,69.1,29.77,SSE,158,15.8,15.8,80,0.00,CLR,,0.00,490.0,WeatherDisplay:10.37,2013-05-29 10:01:00,
2013-05-29 05:06:00,75.7,69.5,29.77,SSE,158,6.9,8.1,81,0.00,CLR,,0.00,490.0,WeatherDisplay:10.37,2013-05-29 10:06:00,
2013-05-29 05:12:00,75.4,69.1,29.77,SE,135,16.1,16.1,81,0.00,CLR,,0.00,490.0,WeatherDisplay:10.37,2013-05-29 10:12:00,
2013-05-29 05:17:00,75.4,69.1,29.77,ESE,112,9.2,9.2,81,0.00,CLR,,0.00,490.0,WeatherDisplay:10.37,2013-05-29 10:17:00,
2013-05-29 05:22:00,75.2,69.0,29.77,ENE,68,10.4,10.4,81,0.00,CLR,,0.00,490.0,WeatherDisplay:10.37,2013-05-29 10:22:00,
2013-05-29 05:27:00,75.2,69.0,29.77,SE,135,9.2,9.2,81,0.00,CLR,,0.00,460.0,WeatherDisplay:10.37,2013-05-29 10:27:00,
2013-05-29 05:32:00,75.2,69.0,29.77,SSE,158,17.3,17.3,81,0.00,CLR,,0.00,450.0,WeatherDisplay:10.37,2013-05-29 10:32:00,
2013-05-29 05:37:00,75.0,69.1,29.77,SE,135,9.2,9.2,82,0.00,CLR,,0.00,470.0,WeatherDisplay:10.37,2013-05-29 10:37:00,
2013-05-29 05:42:00,75.0,69.1,29.77,SSE,158,12.7,12.7,82,0.00,CLR,,0.00,470.0,WeatherDisplay:10.37,2013-05-29 10:42:00,
2013-05-29 05:48:00,75.0,69.1,29.77,SSW,202,12.7,12.7,82,0.00,CLR,,0.00,470.0,WeatherDisplay:10.37,2013-05-29 10:48:00,
2013-05-29 05:53:00,75.0,69.1,29.77,SE,135,17.3,17.3,82,0.00,CLR,,0.00,470.0,WeatherDisplay:10.37,2013-05-29 10:53:00,
2013-05-29 05:58:00,75.0,69.1,29.77,SSW,202,17.3,17.3,82,0.00,CLR,,0.00,460.0,WeatherDisplay:10.37,2013-05-29 10:58:00,
2013-05-29 06:04:00,75.0,69.1,29.77,SSE,158,11.5,11.5,82,0.00,OVC,,0.00,460.0,WeatherDisplay:10.37,2013-05-29 11:04:00,
2013-05-29 06:09:00,75.0,69.1,29.77,SSE,158,11.5,11.5,82,0.00,OVC,,0.00,460.0,WeatherDisplay:10.37,2013-05-29 11:09:00,
2013-05-29 06:14:00,74.8,69.0,29.77,SE,135,10.4,10.4,82,0.00,OVC,,0.00,450.0,WeatherDisplay:10.37,2013-05-29 11:14:00,
2013-05-29 06:19:00,74.8,69.0,29.77,South,180,6.9,8.4,82,0.00,OVC,,0.00,450.0,WeatherDisplay:10.37,2013-05-29 11:19:00,
2013-05-29 06:24:00,74.7,68.8,29.77,SSE,158,15.0,15.0,82,0.00,OVC,,0.00,460.0,WeatherDisplay:10.37,2013-05-29 11:24:00,
2013-05-29 06:29:00,74.8,69.0,29.79,SE,135,11.5,11.5,82,0.00,OVC,,0.00,480.0,WeatherDisplay:10.37,2013-05-29 11:29:00,
2013-05-29 06:35:00,74.8,69.0,29.79,ESE,112,10.4,10.4,82,0.00,OVC,,0.00,480.0,WeatherDisplay:10.37,2013-05-29 11:35:00,
2013-05-29 06:40:00,74.8,69.0,29.79,SSE,158,8.1,8.1,82,0.00,OVC,,0.00,500.0,WeatherDisplay:10.37,2013-05-29 11:40:00,
2013-05-29 06:45:00,74.8,69.0,29.79,SSE,158,11.5,11.5,82,0.00,OVC,,0.00,540.0,WeatherDisplay:10.37,2013-05-29 11:45:00,
2013-05-29 06:50:00,75.0,69.1,29.81,SE,135,4.6,4.6,82,0.00,OVC,,0.00,570.0,WeatherDisplay:10.37,2013-05-29 11:50:00,
2013-05-29 06:55:00,75.0,69.1,29.81,SE,135,4.6,4.6,82,0.00,OVC,,0.00,670.0,WeatherDisplay:10.37,2013-05-29 11:55:00,
2013-05-29 07:00:00,74.7,68.8,29.81,ESE,112,7.1,7.1,82,0.00,OVC,,0.00,730.0,WeatherDisplay:10.37,2013-05-29 12:00:00,
2013-05-29 07:06:00,75.0,69.1,29.81,SSE,158,7.4,7.4,82,0.00,OVC,,0.00,700.0,WeatherDisplay:10.37,2013-05-29 12:06:00,
2013-05-29 07:11:00,74.8,69.0,29.82,SSE,158,6.9,6.9,82,0.00,OVC,,0.00,730.0,WeatherDisplay:10.37,2013-05-29 12:11:00,
2013-05-29 07:16:00,74.8,69.0,29.82,SW,225,6.9,6.9,82,0.00,OVC,,0.00,740.0,WeatherDisplay:10.37,2013-05-29 12:16:00,
2013-05-29 07:21:00,74.8,69.0,29.82,SE,135,6.9,6.9,82,0.00,OVC,,0.00,750.0,WeatherDisplay:10.37,2013-05-29 12:21:00,
2013-05-29 07:26:00,75.0,69.1,29.82,SSE,158,10.4,10.4,82,0.00,OVC,,0.00,780.0,WeatherDisplay:10.37,2013-05-29 12:26:00,
2013-05-29 07:32:00,75.0,69.1,29.83,SSE,158,17.3,17.3,82,0.00,OVC,,0.00,790.0,WeatherDisplay:10.37,2013-05-29 12:32:00,
2013-05-29 07:37:00,75.0,69.1,29.83,SSE,158,6.9,6.9,82,0.00,OVC,,0.00,790.0,WeatherDisplay:10.37,2013-05-29 12:37:00,
2013-05-29 07:42:00,74.8,69.0,29.83,SSE,158,6.9,6.9,82,0.00,OVC,,0.00,760.0,WeatherDisplay:10.37,2013-05-29 12:42:00,
2013-05-29 07:47:00,75.0,69.1,29.83,ESE,112,9.3,9.3,82,0.00,OVC,,0.00,760.0,WeatherDisplay:10.37,2013-05-29 12:47:00,
2013-05-29 07:52:00,75.0,69.1,29.83,SSE,158,8.1,8.1,82,0.00,OVC,,0.00,790.0,WeatherDisplay:10.37,2013-05-29 12:52:00,
2013-05-29 07:58:00,75.2,69.3,29.83,ESE,112,11.5,11.5,82,0.00,OVC,,0.00,750.0,WeatherDisplay:10.37,2013-05-29 12:58:00,
2013-05-29 08:03:00,75.2,69.3,29.83,South,180,5.8,6.6,82,0.00,OVC,,0.00,750.0,WeatherDisplay:10.37,2013-05-29 13:03:00,
2013-05-29 08:08:00,75.4,69.5,29.83,SSE,158,6.9,6.9,82,0.00,OVC,,0.00,700.0,WeatherDisplay:10.37,2013-05-29 13:08:00,
2013-05-29 08:14:00,75.4,69.5,29.83,SE,135,13.8,13.8,82,0.00,OVC,,0.00,530.0,WeatherDisplay:10.37,2013-05-29 13:14:00,
2013-05-29 08:19:00,75.4,69.5,29.83,SE,135,11.7,11.7,82,0.00,OVC,,0.00,440.0,WeatherDisplay:10.37,2013-05-29 13:19:00,
2013-05-29 08:24:00,75.7,69.9,29.83,East,90,8.1,8.1,82,0.00,OVC,,0.00,380.0,WeatherDisplay:10.37,2013-05-29 13:24:00,
2013-05-29 08:29:00,75.7,69.9,29.83,SE,135,5.8,7.2,82,0.00,OVC,,0.00,380.0,WeatherDisplay:10.37,2013-05-29 13:29:00,
2013-05-29 08:35:00,75.6,69.7,29.84,SSE,158,10.4,10.4,82,0.00,OVC,,0.00,340.0,WeatherDisplay:10.37,2013-05-29 13:35:00,
2013-05-29 08:40:00,75.7,69.9,29.84,ESE,112,10.4,10.4,82,0.00,OVC,,0.00,320.0,WeatherDisplay:10.37,2013-05-29 13:40:00,
2013-05-29 08:45:00,75.9,70.0,29.84,SE,135,10.4,10.4,82,0.00,OVC,,0.00,290.0,WeatherDisplay:10.37,2013-05-29 13:45:00,
2013-05-29 08:50:00,75.9,70.0,29.84,SSE,158,12.7,12.7,82,0.00,OVC,,0.00,240.0,WeatherDisplay:10.37,2013-05-29 13:50:00,
2013-05-29 08:55:00,76.1,69.8,29.84,SE,135,11.5,11.5,81,0.00,OVC,,0.00,210.0,WeatherDisplay:10.37,2013-05-29 13:55:00,
2013-05-29 09:00:00,75.9,70.0,29.84,SE,135,11.5,11.5,82,0.00,OVC,,0.00,200.0,WeatherDisplay:10.37,2013-05-29 14:00:00,
2013-05-29 09:05:00,76.1,69.8,29.84,SE,135,10.4,10.4,81,0.00,OVC,,0.00,210.0,WeatherDisplay:10.37,2013-05-29 14:05:00,
2013-05-29 09:10:00,76.1,69.8,29.87,SSE,158,9.2,9.2,81,0.00,OVC,,0.00,200.0,WeatherDisplay:10.37,2013-05-29 14:10:00,
2013-05-29 09:16:00,76.3,70.0,29.87,ESE,112,10.4,10.4,81,0.00,OVC,,0.00,180.0,WeatherDisplay:10.37,2013-05-29 14:16:00,
2013-05-29 09:21:00,76.5,70.2,29.87,SSE,158,9.2,9.2,81,0.00,OVC,,0.00,190.0,WeatherDisplay:10.37,2013-05-29 14:21:00,
2013-05-29 09:26:00,76.5,70.2,29.87,SSE,158,11.5,11.5,81,0.00,OVC,,0.00,180.0,WeatherDisplay:10.37,2013-05-29 14:26:00,
2013-05-29 09:31:00,76.5,70.2,29.85,ESE,112,8.1,8.1,81,0.00,OVC,,0.00,190.0,WeatherDisplay:10.37,2013-05-29 14:31:00,
2013-05-29 09:36:00,76.5,70.2,29.85,SE,135,12.8,12.8,81,0.00,OVC,,0.00,190.0,WeatherDisplay:10.37,2013-05-29 14:36:00,
2013-05-29 09:41:00,76.6,70.0,29.85,SE,135,9.2,9.2,80,0.00,OVC,,0.00,190.0,WeatherDisplay:10.37,2013-05-29 14:41:00,
2013-05-29 09:47:00,76.8,70.2,29.85,SSE,158,5.9,8.3,80,0.00,OVC,,0.00,170.0,WeatherDisplay:10.37,2013-05-29 14:47:00,
2013-05-29 09:52:00,76.8,70.2,29.84,SE,135,6.9,7.4,80,0.00,OVC,,0.00,160.0,WeatherDisplay:10.37,2013-05-29 14:52:00,
2013-05-29 09:57:00,77.2,70.5,29.84,SSE,158,9.8,9.8,80,0.00,OVC,,0.00,150.0,WeatherDisplay:10.37,2013-05-29 14:57:00,
2013-05-29 10:02:00,77.0,70.4,29.84,SSE,158,17.3,17.3,80,0.00,OVC,,0.00,130.0,WeatherDisplay:10.37,2013-05-29 15:02:00,
2013-05-29 10:07:00,77.2,70.5,29.84,South,180,3.9,8.1,80,0.00,OVC,,0.00,100.0,WeatherDisplay:10.37,2013-05-29 15:07:00,
2013-05-29 10:12:00,77.4,70.7,29.83,SE,135,8.1,8.1,80,0.00,OVC,,0.00,100.0,WeatherDisplay:10.37,2013-05-29 15:12:00,
2013-05-29 10:17:00,77.4,70.3,29.83,NNE,22,6.9,6.9,79,0.00,OVC,,0.00,100.0,WeatherDisplay:10.37,2013-05-29 15:17:00,
2013-05-29 10:22:00,77.5,70.5,29.83,South,180,9.2,9.2,79,0.00,OVC,,0.00,80.0,WeatherDisplay:10.37,2013-05-29 15:22:00,
2013-05-29 10:28:00,77.7,70.7,29.83,South,180,7.1,7.1,79,0.00,OVC,,0.00,80.0,WeatherDisplay:10.37,2013-05-29 15:28:00,
2013-05-29 10:33:00,77.7,70.7,29.85,ESE,112,10.5,10.5,79,0.00,OVC,,0.00,70.0,WeatherDisplay:10.37,2013-05-29 15:33:00,
2013-05-29 10:38:00,77.7,70.7,29.85,SE,135,9.2,9.2,79,0.00,OVC,,0.00,70.0,WeatherDisplay:10.37,2013-05-29 15:38:00,
2013-05-29 10:43:00,77.9,70.5,29.85,SE,135,11.5,11.5,78,0.00,OVC,,0.00,70.0,WeatherDisplay:10.37,2013-05-29 15:43:00,
2013-05-29 10:49:00,77.7,70.3,29.85,SSE,158,11.5,11.5,78,0.00,OVC,,0.00,70.0,WeatherDisplay:10.37,2013-05-29 15:49:00,
2013-05-29 10:54:00,77.7,70.3,29.84,SSE,158,7.2,8.5,78,0.00,OVC,,0.00,80.0,WeatherDisplay:10.37,2013-05-29 15:54:00,
2013-05-29 10:59:00,77.9,70.5,29.84,ESE,112,5.2,7.6,78,0.00,OVC,,0.00,80.0,WeatherDisplay:10.37,2013-05-29 15:59:00,
2013-05-29 11:04:00,77.7,70.3,29.84,SE,135,6.9,6.9,78,0.00,OVC,,0.00,90.0,WeatherDisplay:10.37,2013-05-29 16:04:00,
2013-05-29 11:09:00,77.7,70.3,29.84,SE,135,10.4,10.4,78,0.00,OVC,,0.00,90.0,WeatherDisplay:10.37,2013-05-29 16:09:00,
2013-05-29 11:14:00,77.9,70.5,29.85,South,180,11.5,11.5,78,0.00,OVC,,0.00,90.0,WeatherDisplay:10.37,2013-05-29 16:14:00,
2013-05-29 11:19:00,78.1,70.7,29.85,SE,135,8.1,8.1,78,0.00,OVC,,0.00,100.0,WeatherDisplay:10.37,2013-05-29 16:19:00,
2013-05-29 11:25:00,78.3,71.2,29.85,SE,135,9.2,9.2,79,0.00,CLR,,0.00,110.0,WeatherDisplay:10.37,2013-05-29 16:25:00,
2013-05-29 11:30:00,78.4,71.0,29.84,SE,135,10.4,10.4,78,0.00,CLR,,0.00,90.0,WeatherDisplay:10.37,2013-05-29 16:30:00,
2013-05-29 11:35:00,78.4,71.0,29.84,ESE,112,9.2,9.2,78,0.00,CLR,,0.00,80.0,WeatherDisplay:10.37,2013-05-29 16:35:00,
2013-05-29 11:40:00,78.6,71.2,29.84,SSE,158,6.9,7.5,78,0.00,CLR,,0.00,70.0,WeatherDisplay:10.37,2013-05-29 16:40:00,
2013-05-29 11:45:00,78.6,70.8,29.84,South,180,6.9,7.5,77,0.00,CLR,,0.00,70.0,WeatherDisplay:10.37,2013-05-29 16:45:00,
2013-05-29 11:50:00,78.8,71.4,29.84,SE,135,11.5,11.5,78,0.00,CLR,,0.00,70.0,WeatherDisplay:10.37,2013-05-29 16:50:00,
2013-05-29 11:56:00,78.8,71.0,29.84,SE,135,16.1,16.1,77,0.00,SCT,,0.00,60.0,WeatherDisplay:10.37,2013-05-29 16:56:00,
2013-05-29 12:01:00,78.6,70.8,29.84,SSE,158,11.5,11.5,77,0.00,SCT,,0.00,60.0,WeatherDisplay:10.37,2013-05-29 17:01:00,
2013-05-29 12:06:00,78.8,71.0,29.84,SW,225,9.2,9.2,77,0.00,SCT,,0.00,60.0,WeatherDisplay:10.37,2013-05-29 17:06:00,
2013-05-29 12:11:00,79.0,71.2,29.84,SW,225,9.5,9.5,77,0.00,BKN,,0.00,60.0,WeatherDisplay:10.37,2013-05-29 17:11:00,
2013-05-29 12:16:00,78.8,71.0,29.84,SSE,158,11.7,11.7,77,0.00,BKN,,0.00,60.0,WeatherDisplay:10.37,2013-05-29 17:16:00,
2013-05-29 12:22:00,79.2,71.3,29.84,SSE,158,10.4,10.4,77,0.00,BKN,,0.00,70.0,WeatherDisplay:10.37,2013-05-29 17:22:00,
2013-05-29 12:27:00,79.2,71.3,29.84,SE,135,9.2,9.2,77,0.00,OVC,,0.00,60.0,WeatherDisplay:10.37,2013-05-29 17:27:00,
2013-05-29 12:32:00,79.2,71.3,29.84,SE,135,18.4,18.4,77,0.00,OVC,,0.00,50.0,WeatherDisplay:10.37,2013-05-29 17:32:00,
2013-05-29 12:37:00,79.2,71.3,29.84,ESE,112,6.9,7.6,77,0.00,OVC,,0.00,60.0,WeatherDisplay:10.37,2013-05-29 17:37:00,
2013-05-29 12:42:00,79.3,71.5,29.84,SSE,158,10.4,10.4,77,0.00,OVC,,0.00,60.0,WeatherDisplay:10.37,2013-05-29 17:42:00,
2013-05-29 12:47:00,79.2,71.3,29.84,SW,225,10.4,10.4,77,0.00,OVC,,0.00,50.0,WeatherDisplay:10.37,2013-05-29 17:47:00,
2013-05-29 12:52:00,79.3,71.5,29.84,SE,135,9.2,9.2,77,0.00,OVC,,0.00,50.0,WeatherDisplay:10.37,2013-05-29 17:52:00,
2013-05-29 12:58:00,79.0,71.2,29.84,SE,135,6.9,7.1,77,0.00,OVC,,0.00,50.0,WeatherDisplay:10.37,2013-05-29 17:58:00,
2013-05-29 13:03:00,79.2,71.3,29.84,SSE,158,11.5,11.5,77,0.00,OVC,,0.00,50.0,WeatherDisplay:10.37,2013-05-29 18:03:00,
2013-05-29 13:08:00,79.2,71.3,29.84,SSE,158,6.9,6.9,77,0.00,OVC,,0.00,50.0,WeatherDisplay:10.37,2013-05-29 18:08:00,
2013-05-29 13:13:00,79.3,71.5,29.83,SSE,158,3.7,5.5,77,0.00,OVC,,0.00,60.0,WeatherDisplay:10.37,2013-05-29 18:13:00,
2013-05-29 13:18:00,79.5,71.7,29.83,SW,225,9.2,9.2,77,0.00,OVC,,0.00,60.0,WeatherDisplay:10.37,2013-05-29 18:18:00,
2013-05-29 13:23:00,79.5,71.3,29.83,ESE,112,12.7,12.7,76,0.00,OVC,,0.00,70.0,WeatherDisplay:10.37,2013-05-29 18:23:00,
2013-05-29 13:28:00,79.7,71.5,29.83,SSE,158,6.9,6.9,76,0.00,OVC,,0.00,70.0,WeatherDisplay:10.37,2013-05-29 18:28:00,
2013-05-29 13:34:00,79.5,71.3,29.84,South,180,6.9,6.9,76,0.00,OVC,,0.00,50.0,WeatherDisplay:10.37,2013-05-29 18:34:00,
2013-05-29 13:39:00,79.7,71.5,29.84,NE,45,8.1,8.1,76,0.00,OVC,,0.00,50.0,WeatherDisplay:10.37,2013-05-29 18:39:00,
2013-05-29 13:44:00,79.9,71.6,29.84,SSE,158,6.9,6.9,76,0.00,OVC,,0.00,70.0,WeatherDisplay:10.37,2013-05-29 18:44:00,
2013-05-29 13:49:00,80.2,72.0,29.84,SSE,158,9.2,9.2,76,0.00,OVC,,0.00,70.0,WeatherDisplay:10.37,2013-05-29 18:49:00,
2013-05-29 13:54:00,80.2,71.6,29.83,South,180,11.8,11.8,75,0.00,OVC,,0.00,50.0,WeatherDisplay:10.37,2013-05-29 18:54:00,
2013-05-29 14:00:00,80.2,71.6,29.83,WSW,248,6.9,6.9,75,0.00,OVC,,0.00,40.0,WeatherDisplay:10.37,2013-05-29 19:00:00,
2013-05-29 14:05:00,80.2,71.6,29.83,ESE,112,4.6,7.2,75,0.00,OVC,,0.00,40.0,WeatherDisplay:10.37,2013-05-29 19:05:00,
2013-05-29 14:10:00,80.2,71.6,29.83,SE,135,11.5,11.5,75,0.00,OVC,,0.00,40.0,WeatherDisplay:10.37,2013-05-29 19:10:00,
2013-05-29 14:15:00,80.8,72.1,29.83,SSE,158,6.9,6.9,75,0.00,OVC,,0.00,40.0,WeatherDisplay:10.37,2013-05-29 19:15:00,
2013-05-29 14:21:00,80.8,71.7,29.83,SSW,202,6.9,7.0,74,0.00,OVC,,0.00,40.0,WeatherDisplay:10.37,2013-05-29 19:21:00,
2013-05-29 14:26:00,81.0,71.9,29.83,SSE,158,11.5,11.5,74,0.00,OVC,,0.00,40.0,WeatherDisplay:10.37,2013-05-29 19:26:00,
2013-05-29 14:31:00,81.1,71.7,29.82,SE,135,16.1,16.1,73,0.00,OVC,,0.00,30.0,WeatherDisplay:10.37,2013-05-29 19:31:00,
2013-05-29 14:36:00,81.1,71.7,29.82,SE,135,15.0,15.0,73,0.00,OVC,,0.00,30.0,WeatherDisplay:10.37,2013-05-29 19:36:00,
2013-05-29 14:42:00,81.5,72.0,29.82,South,180,13.8,13.8,73,0.00,OVC,,0.00,40.0,WeatherDisplay:10.37,2013-05-29 19:42:00,
2013-05-29 14:47:00,81.3,71.8,29.82,South,180,5.8,7.8,73,0.00,OVC,,0.00,30.0,WeatherDisplay:10.37,2013-05-29 19:47:00,
2013-05-29 14:52:00,81.5,72.0,29.81,South,180,6.9,6.9,73,0.00,OVC,,0.00,20.0,WeatherDisplay:10.37,2013-05-29 19:52:00,
2013-05-29 14:57:00,81.9,71.9,29.81,ESE,112,15.0,15.0,72,0.00,OVC,,0.00,30.0,WeatherDisplay:10.37,2013-05-29 19:57:00,
2013-05-29 15:03:00,81.7,71.8,29.81,SE,135,9.2,9.2,72,0.00,OVC,,0.00,30.0,WeatherDisplay:10.37,2013-05-29 20:03:00,
2013-05-29 15:08:00,82.0,72.5,29.81,NW,315,9.2,9.2,73,0.00,OVC,,0.00,20.0,WeatherDisplay:10.37,2013-05-29 20:08:00,
2013-05-29 15:13:00,82.0,72.5,29.81,ESE,112,5.8,6.0,73,0.00,OVC,,0.00,20.0,WeatherDisplay:10.37,2013-05-29 20:13:00,
2013-05-29 15:18:00,82.2,72.3,29.81,South,180,11.5,11.5,72,0.00,OVC,,0.00,20.0,WeatherDisplay:10.37,2013-05-29 20:18:00,
2013-05-29 15:24:00,82.4,72.0,29.81,SSE,158,12.7,12.7,71,0.00,OVC,,0.00,20.0,WeatherDisplay:10.37,2013-05-29 20:24:00,
2013-05-29 15:29:00,82.4,72.0,29.81,SE,135,6.9,7.9,71,0.00,OVC,,0.00,20.0,WeatherDisplay:10.37,2013-05-29 20:29:00,
2013-05-29 15:34:00,82.6,72.2,29.80,SSE,158,9.2,9.2,71,0.00,OVC,,0.00,20.0,WeatherDisplay:10.37,2013-05-29 20:34:00,
2013-05-29 15:39:00,82.6,72.2,29.80,SSE,158,11.5,11.5,71,0.00,OVC,,0.00,20.0,WeatherDisplay:10.37,2013-05-29 20:39:00,
2013-05-29 15:44:00,82.6,72.2,29.80,South,180,11.5,11.5,71,0.00,OVC,,0.00,10.0,WeatherDisplay:10.37,2013-05-29 20:44:00,
2013-05-29 15:49:00,82.4,72.0,29.78,WNW,292,9.8,9.8,71,0.00,OVC,,0.00,10.0,WeatherDisplay:10.37,2013-05-29 20:49:00,
2013-05-29 15:55:00,82.9,72.6,29.78,SE,135,13.8,13.8,71,0.00,OVC,,0.00,10.0,WeatherDisplay:10.37,2013-05-29 20:55:00,
2013-05-29 16:00:00,83.1,72.3,29.78,ESE,112,9.2,9.2,70,0.00,OVC,,0.00,20.0,WeatherDisplay:10.37,2013-05-29 21:00:00,
2013-05-29 16:05:00,83.7,72.8,29.78,ENE,68,6.9,7.2,70,0.00,OVC,,0.00,20.0,WeatherDisplay:10.37,2013-05-29 21:05:00,
2013-05-29 16:10:00,83.7,72.8,29.76,SSE,158,15.0,15.0,70,0.00,OVC,,0.00,20.0,WeatherDisplay:10.37,2013-05-29 21:10:00,
2013-05-29 16:15:00,83.7,72.4,29.76,South,180,6.9,8.5,69,0.00,OVC,,0.00,10.0,WeatherDisplay:10.37,2013-05-29 21:15:00,
2013-05-29 16:20:00,84.0,72.8,29.76,SSE,158,18.4,18.4,69,0.00,OVC,,0.00,20.0,WeatherDisplay:10.37,2013-05-29 21:20:00,
2013-05-29 16:26:00,84.4,72.7,29.76,SE,135,13.8,13.8,68,0.00,OVC,,0.00,20.0,WeatherDisplay:10.37,2013-05-29 21:26:00,
2013-05-29 16:31:00,84.0,72.8,29.75,SE,135,10.5,10.5,69,0.00,OVC,,0.00,10.0,WeatherDisplay:10.37,2013-05-29 21:31:00,
2013-05-29 16:36:00,83.8,72.6,29.75,SE,135,8.1,8.1,69,0.00,OVC,,0.00,0.0,WeatherDisplay:10.37,2013-05-29 21:36:00,
2013-05-29 16:41:00,83.7,72.4,29.75,ESE,112,15.0,15.0,69,0.00,OVC,,0.00,0.0,WeatherDisplay:10.37,2013-05-29 21:41:00,
2013-05-29 16:47:00,83.7,72.8,29.75,ENE,68,10.4,10.4,70,0.00,OVC,,0.00,0.0,WeatherDisplay:10.37,2013-05-29 21:47:00,
2013-05-29 16:52:00,84.0,73.2,29.76,SSE,158,10.4,10.4,70,0.00,OVC,,0.00,10.0,WeatherDisplay:10.37,2013-05-29 21:52:00,
2013-05-29 16:57:00,84.0,72.8,29.76,SE,135,10.4,10.4,69,0.00,OVC,,0.00,10.0,WeatherDisplay:10.37,2013-05-29 21:57:00,
2013-05-29 17:02:00,83.8,72.1,29.76,SSE,158,13.8,13.8,68,0.00,OVC,,0.00,0.0,WeatherDisplay:10.37,2013-05-29 22:02:00,
2013-05-29 17:08:00,83.8,72.1,29.76,SE,135,15.1,15.1,68,0.00,OVC,,0.00,0.0,WeatherDisplay:10.37,2013-05-29 22:08:00,
2013-05-29 17:13:00,84.0,73.6,29.77,SW,225,10.4,10.4,71,0.00,OVC,,0.00,10.0,WeatherDisplay:10.37,2013-05-29 22:13:00,
2013-05-29 17:18:00,83.3,73.7,29.77,South,180,12.7,12.7,73,0.00,OVC,,0.00,0.0,WeatherDisplay:10.37,2013-05-29 22:18:00,
2013-05-29 17:23:00,82.9,73.4,29.77,SE,135,9.2,9.2,73,0.00,OVC,,0.00,0.0,WeatherDisplay:10.37,2013-05-29 22:23:00,
2013-05-29 17:28:00,82.9,73.8,29.77,ENE,68,8.2,8.2,74,0.00,OVC,,0.00,0.0,WeatherDisplay:10.37,2013-05-29 22:28:00,
2013-05-29 17:34:00,82.6,73.0,29.75,ESE,112,12.7,12.7,73,0.00,OVC,,0.00,0.0,WeatherDisplay:10.37,2013-05-29 22:34:00,
2013-05-29 17:39:00,82.4,72.9,29.75,South,180,6.9,7.2,73,0.00,OVC,,0.00,0.0,WeatherDisplay:10.37,2013-05-29 22:39:00,
2013-05-29 17:44:00,81.9,71.1,29.75,ESE,112,11.5,11.5,70,0.00,OVC,,0.00,10.0,WeatherDisplay:10.37,2013-05-29 22:44:00,
2013-05-29 17:49:00,78.3,68.1,29.75,SSE,158,9.2,9.2,71,0.10,RA,,0.10,0.0,WeatherDisplay:10.37,2013-05-29 22:49:00,
2013-05-29 17:55:00,77.2,68.2,29.75,SSE,158,9.2,9.2,74,0.29,RA,,0.29,0.0,WeatherDisplay:10.37,2013-05-29 22:55:00,
2013-05-29 18:00:00,77.2,70.2,29.75,South,180,8.1,8.1,79,0.29,RA,,0.29,0.0,WeatherDisplay:10.37,2013-05-29 23:00:00,
2013-05-29 18:05:00,77.5,71.2,29.75,East,90,8.1,8.1,81,0.29,OVC,,0.29,10.0,WeatherDisplay:10.37,2013-05-29 23:05:00,
2013-05-29 18:10:00,77.5,71.2,29.75,ESE,112,18.4,18.4,81,0.29,OVC,,0.29,10.0,WeatherDisplay:10.37,2013-05-29 23:10:00,
2013-05-29 18:15:00,77.2,70.2,29.75,SSE,158,9.2,9.2,79,0.29,OVC,,0.29,20.0,WeatherDisplay:10.37,2013-05-29 23:15:00,
2013-05-29 18:20:00,77.0,70.4,29.75,SSE,158,9.4,9.4,80,0.29,OVC,,0.29,20.0,WeatherDisplay:10.37,2013-05-29 23:20:00,
2013-05-29 18:25:00,76.8,70.2,29.75,SE,135,11.8,11.8,80,0.29,OVC,,0.29,20.0,WeatherDisplay:10.37,2013-05-29 23:25:00,
2013-05-29 18:30:00,76.3,69.7,29.75,ESE,112,11.5,11.5,80,0.32,RA,,0.32,20.0,WeatherDisplay:10.37,2013-05-29 23:30:00,
2013-05-29 18:36:00,76.1,69.5,29.75,SE,135,6.9,9.4,80,0.32,RA,,0.32,20.0,WeatherDisplay:10.37,2013-05-29 23:36:00,
2013-05-29 18:41:00,75.9,69.3,29.75,NE,45,9.2,9.2,80,0.32,OVC,,0.32,20.0,WeatherDisplay:10.37,2013-05-29 23:41:00,
2013-05-29 18:46:00,75.7,69.5,29.75,ESE,112,6.9,6.9,81,0.22,OVC,,0.32,10.0,WeatherDisplay:10.37,2013-05-29 23:46:00,
2013-05-29 18:51:00,75.4,69.5,29.75,ESE,112,11.6,11.6,82,0.22,OVC,,0.32,10.0,WeatherDisplay:10.37,2013-05-29 23:51:00,
2013-05-29 18:56:00,75.2,69.3,29.75,ENE,68,10.4,10.4,82,0.03,OVC,,0.32,10.0,WeatherDisplay:10.37,2013-05-29 23:56:00,
2013-05-29 19:01:00,75.2,69.7,29.75,SE,135,9.2,9.2,83,0.03,OVC,,0.32,10.0,WeatherDisplay:10.37,2013-05-30 00:01:00,
2013-05-29 19:07:00,75.2,69.7,29.75,ESE,112,7.4,7.4,83,0.03,OVC,,0.32,10.0,WeatherDisplay:10.37,2013-05-30 00:07:00,
2013-05-29 19:12:00,75.2,70.0,29.76,ESE,112,6.9,6.9,84,0.03,OVC,,0.32,10.0,WeatherDisplay:10.37,2013-05-30 00:12:00,
2013-05-29 19:17:00,75.0,69.5,29.76,ESE,112,9.2,9.2,83,0.03,OVC,,0.32,20.0,WeatherDisplay:10.37,2013-05-30 00:17:00,
2013-05-29 19:22:00,75.0,69.9,29.76,East,90,6.9,7.4,84,0.03,OVC,,0.32,20.0,WeatherDisplay:10.37,2013-05-30 00:22:00,
2013-05-29 19:27:00,74.8,69.7,29.76,SSE,158,6.9,7.0,84,0.03,OVC,,0.32,20.0,WeatherDisplay:10.37,2013-05-30 00:27:00,
2013-05-29 19:33:00,74.7,69.8,29.75,ESE,112,8.1,8.1,85,0.00,OVC,,0.32,20.0,WeatherDisplay:10.37,2013-05-30 00:33:00,
2013-05-29 19:38:00,74.7,70.2,29.75,SE,135,13.8,13.8,86,0.00,OVC,,0.32,40.0,WeatherDisplay:10.37,2013-05-30 00:38:00,
2013-05-29 19:43:00,75.0,70.5,29.75,SE,135,8.1,8.1,86,0.00,OVC,,0.32,40.0,WeatherDisplay:10.37,2013-05-30 00:43:00,
2013-05-29 19:48:00,74.8,70.4,29.75,ESE,112,10.4,10.4,86,0.00,OVC,,0.32,40.0,WeatherDisplay:10.37,2013-05-30 00:48:00,
2013-05-29 19:53:00,74.8,70.7,29.77,ESE,112,6.9,6.9,87,0.00,OVC,,0.32,60.0,WeatherDisplay:10.37,2013-05-30 00:53:00,
2013-05-29 19:59:00,74.8,70.7,29.77,ESE,112,11.5,11.5,87,0.00,OVC,,0.32,70.0,WeatherDisplay:10.37,2013-05-30 00:59:00,
2013-05-29 20:04:00,74.8,70.7,29.77,SSE,158,10.4,10.4,87,0.00,OVC,,0.32,80.0,WeatherDisplay:10.37,2013-05-30 01:04:00,
2013-05-29 20:09:00,75.0,70.9,29.77,ESE,112,10.8,10.8,87,0.00,OVC,,0.32,80.0,WeatherDisplay:10.37,2013-05-30 01:09:00,
2013-05-29 20:14:00,75.0,71.2,29.75,East,90,8.1,8.1,88,0.00,OVC,,0.32,90.0,WeatherDisplay:10.37,2013-05-30 01:14:00,
2013-05-29 20:19:00,75.0,71.2,29.75,South,180,7.7,7.7,88,0.00,OVC,,0.32,100.0,WeatherDisplay:10.37,2013-05-30 01:19:00,
2013-05-29 20:25:00,75.0,71.2,29.75,ESE,112,6.9,6.9,88,0.00,OVC,,0.32,120.0,WeatherDisplay:10.37,2013-05-30 01:25:00,
2013-05-29 20:30:00,75.0,71.2,29.76,SE,135,5.8,5.8,88,0.00,OVC,,0.32,120.0,WeatherDisplay:10.37,2013-05-30 01:30:00,
2013-05-29 20:35:00,75.0,71.2,29.76,East,90,5.8,5.8,88,0.00,OVC,,0.32,130.0,WeatherDisplay:10.37,2013-05-30 01:35:00,
2013-05-29 20:40:00,75.0,71.2,29.76,SSE,158,8.1,8.1,88,0.00,OVC,,0.32,140.0,WeatherDisplay:10.37,2013-05-30 01:40:00,
2013-05-29 20:45:00,75.0,71.2,29.76,ESE,112,6.9,6.9,88,0.00,OVC,,0.32,140.0,WeatherDisplay:10.37,2013-05-30 01:45:00,
2013-05-29 20:50:00,75.0,71.2,29.75,SE,135,9.2,9.2,88,0.00,OVC,,0.32,170.0,WeatherDisplay:10.37,2013-05-30 01:50:00,
2013-05-29 20:56:00,75.0,71.2,29.75,SE,135,6.9,6.9,88,0.00,OVC,,0.32,180.0,WeatherDisplay:10.37,2013-05-30 01:56:00,
2013-05-29 21:01:00,75.2,71.4,29.75,ESE,112,11.5,11.5,88,0.00,CLR,,0.32,190.0,WeatherDisplay:10.37,2013-05-30 02:01:00,
2013-05-29 21:06:00,75.2,71.4,29.75,South,180,10.4,10.4,88,0.00,CLR,,0.32,210.0,WeatherDisplay:10.37,2013-05-30 02:06:00,
2013-05-29 21:11:00,75.4,71.6,29.75,SE,135,11.5,11.5,88,0.00,CLR,,0.32,230.0,WeatherDisplay:10.37,2013-05-30 02:11:00,
2013-05-29 21:16:00,75.2,71.4,29.75,SSE,158,9.2,9.2,88,0.00,CLR,,0.32,250.0,WeatherDisplay:10.37,2013-05-30 02:16:00,
2013-05-29 21:21:00,75.2,71.4,29.75,ESE,112,7.5,7.7,88,0.00,CLR,,0.32,270.0,WeatherDisplay:10.37,2013-05-30 02:21:00,
2013-05-29 21:27:00,75.4,71.6,29.75,SE,135,13.8,13.8,88,0.00,CLR,,0.32,0.0,WeatherDisplay:10.37,2013-05-30 02:27:00,
2013-05-29 21:32:00,75.4,71.6,29.76,SSE,158,8.1,8.1,88,0.00,CLR,,0.32,280.0,WeatherDisplay:10.37,2013-05-30 02:32:00,
2013-05-29 21:37:00,75.4,71.2,29.76,SE,135,9.4,9.4,87,0.00,CLR,,0.32,280.0,WeatherDisplay:10.37,2013-05-30 02:37:00,
2013-05-29 21:42:00,75.4,71.2,29.76,SE,135,15.0,15.0,87,0.00,CLR,,0.32,280.0,WeatherDisplay:10.37,2013-05-30 02:42:00,
2013-05-29 21:48:00,75.4,71.2,29.76,ESE,112,12.7,12.7,87,0.00,CLR,,0.32,280.0,WeatherDisplay:10.37,2013-05-30 02:48:00,
2013-05-29 21:53:00,75.4,71.2,29.74,SE,135,6.9,7.2,87,0.00,CLR,,0.32,290.0,WeatherDisplay:10.37,2013-05-30 02:53:00,
2013-05-29 21:58:00,75.4,71.2,29.74,ESE,112,15.0,15.0,87,0.00,CLR,,0.32,290.0,WeatherDisplay:10.37,2013-05-30 02:58:00,
2013-05-29 22:03:00,75.4,71.2,29.74,SE,135,13.8,13.8,87,0.00,CLR,,0.32,290.0,WeatherDisplay:10.37,2013-05-30 03:03:00,
2013-05-29 22:08:00,75.4,71.2,29.74,ESE,112,8.1,8.1,87,0.00,CLR,,0.32,300.0,WeatherDisplay:10.37,2013-05-30 03:08:00,
2013-05-29 22:14:00,75.6,71.4,29.76,ESE,112,15.0,15.0,87,0.00,CLR,,0.32,310.0,WeatherDisplay:10.37,2013-05-30 03:14:00,
2013-05-29 22:19:00,75.6,71.4,29.76,SE,135,11.5,11.5,87,0.00,CLR,,0.32,300.0,WeatherDisplay:10.37,2013-05-30 03:19:00,
2013-05-29 22:24:00,75.7,71.3,29.76,ESE,112,13.8,13.8,86,0.00,CLR,,0.32,310.0,WeatherDisplay:10.37,2013-05-30 03:24:00,
2013-05-29 22:29:00,75.7,71.3,29.78,SE,135,11.5,11.5,86,0.00,CLR,,0.32,320.0,WeatherDisplay:10.37,2013-05-30 03:29:00,
2013-05-29 22:35:00,75.7,71.3,29.78,SE,135,6.9,6.9,86,0.00,CLR,,0.32,330.0,WeatherDisplay:10.37,2013-05-30 03:35:00,
2013-05-29 22:40:00,75.7,71.3,29.78,SE,135,12.7,12.7,86,0.00,CLR,,0.32,0.0,WeatherDisplay:10.37,2013-05-30 03:40:00,
2013-05-29 22:45:00,75.7,71.3,29.78,SE,135,6.9,6.9,86,0.00,CLR,,0.32,340.0,WeatherDisplay:10.37,2013-05-30 03:45:00,
2013-05-29 22:50:00,75.7,71.3,29.79,ESE,112,8.1,8.1,86,0.00,CLR,,0.32,350.0,WeatherDisplay:10.37,2013-05-30 03:50:00,
2013-05-29 22:55:00,75.6,71.1,29.79,SE,135,8.1,8.1,86,0.00,CLR,,0.32,340.0,WeatherDisplay:10.37,2013-05-30 03:55:00,
2013-05-29 23:00:00,75.4,70.9,29.79,ESE,112,6.9,6.9,86,0.00,CLR,,0.32,340.0,WeatherDisplay:10.37,2013-05-30 04:00:00,
2013-05-29 23:01:00,75.4,70.9,29.79,ESE,112,3.9,5.8,86,0.00,CLR,,0.32,0.0,WeatherDisplay:10.37,2013-05-30 04:01:00,
2013-05-29 23:02:00,75.4,70.9,29.79,East,90,8.1,8.1,86,0.00,CLR,,0.32,340.0,WeatherDisplay:10.37,2013-05-30 04:02:00,
2013-05-29 23:04:00,75.4,70.9,29.79,SSE,158,8.1,8.1,86,0.00,CLR,,0.32,330.0,WeatherDisplay:10.37,2013-05-30 04:04:00,
2013-05-29 23:09:00,75.4,70.9,29.79,SSE,158,8.7,8.7,86,0.00,CLR,,0.32,350.0,WeatherDisplay:10.37,2013-05-30 04:09:00,
2013-05-29 23:15:00,75.4,70.9,29.79,SE,135,9.2,9.2,86,0.00,CLR,,0.32,350.0,WeatherDisplay:10.37,2013-05-30 04:15:00,
2013-05-29 23:20:00,75.2,70.4,29.79,SSE,158,9.2,9.2,85,0.00,CLR,,0.32,0.0,WeatherDisplay:10.37,2013-05-30 04:20:00,
2013-05-29 23:25:00,75.2,70.4,29.79,ESE,112,10.4,10.4,85,0.00,CLR,,0.32,370.0,WeatherDisplay:10.37,2013-05-30 04:25:00,
2013-05-29 23:30:00,75.4,70.6,29.79,SE,135,8.1,8.1,85,0.00,CLR,,0.32,380.0,WeatherDisplay:10.37,2013-05-30 04:30:00,
2013-05-29 23:35:00,75.2,70.4,29.79,ESE,112,9.2,9.2,85,0.00,CLR,,0.32,380.0,WeatherDisplay:10.37,2013-05-30 04:35:00,
2013-05-29 23:40:00,75.2,70.4,29.79,SE,135,8.3,8.3,85,0.00,CLR,,0.32,380.0,WeatherDisplay:10.37,2013-05-30 04:40:00,
2013-05-29 23:46:00,75.2,70.4,29.79,SE,135,5.8,6.1,85,0.00,CLR,,0.32,390.0,WeatherDisplay:10.37,2013-05-30 04:46:00,
2013-05-29 23:51:00,75.0,70.2,29.79,ESE,112,6.9,6.9,85,0.00,CLR,,0.32,420.0,WeatherDisplay:10.37,2013-05-30 04:51:00,
2013-05-29 23:56:00,75.0,70.2,29.79,SSE,158,5.8,5.8,85,0.00,CLR,,0.32,440.0,WeatherDisplay:10.37,2013-05-30 04:56:00,